Weather History for Morganton, NC

Change the Weather History Date:

Tuesday, March 26, 2013

  Actual Average (KHKY) Record (KHKY)
Temperature  
Mean Temperature 36 °F -  
Max Temperature 44 °F 62 °F 81 °F (1967)
Min Temperature 29 °F 37 °F 19 °F (1955)
Degree Days  
Heating Degree Days 28    
Moisture  
Dew Point 22 °F    
Average Humidity 54    
Maximum Humidity 73    
Minimum Humidity 41    
Precipitation  
Precipitation 0.00 in - - ()
Sea Level Pressure  
Sea Level Pressure 30.03 in    
Wind  
Wind Speed 7 mph (WNW)    
Max Wind Speed 16 mph    
Max Gust Speed 25 mph    
Visibility 10 miles    
Events      
Averages and records for this station are not official NWS values.
T = Trace of Precipitation, MM = Missing Value Source: NWS Daily Summary

Daily Weather History Graph

Daily Weather History Graph

Search for Another Location

Airport:

Trip Planner

Search our weather history database for the weather conditions in past years. The results will help you decide how hot, cold, wet, or windy it might be!

Date:

Astronomy

Mar. 26, 2013 Rise Set
Actual Time 7:21 AM EDT 7:43 PM EDT
Civil Twilight 6:55 AM EDT 8:09 PM EDT
Nautical Twilight 6:25 AM EDT 8:39 PM EDT
Astronomical Twilight 5:55 AM EDT 9:09 PM EDT
Moon 7:18 PM EDT (3/26) 6:36 AM EDT (3/26)
Length of Visible Light 13h 13m
Length of Day
12h 22m
Waxing Gibbous, 99% of the Moon is Illuminated
Mar 26
Waxing Gibbous
Mar 27
Full
Apr 3
Last Quarter
Apr 10
New
Apr 18
First Quarter

Hourly Weather History & Observations

Time (EDT) Temp. Windchill Dew Point Humidity Pressure Visibility Wind Dir Wind Speed Gust Speed Precip Events Conditions
12:15 AM 34.7 °F 29.6 °F 23.9 °F 65% 29.91 in 10.0 mi West 5.8 mph - N/A   Overcast
12:35 AM 34.3 °F 27.7 °F 23.9 °F 66% 29.90 in 10.0 mi West 8.1 mph 16.1 mph N/A   Mostly Cloudy
12:55 AM 33.1 °F - 23.5 °F 68% 29.91 in 10.0 mi Calm Calm - N/A   Scattered Clouds
1:15 AM 33.8 °F 29.6 °F 23.4 °F 66% 29.91 in 10.0 mi West 4.6 mph - N/A   Scattered Clouds
1:35 AM 32.2 °F 28.9 °F 23.0 °F 69% 29.91 in 10.0 mi SW 3.5 mph - N/A   Mostly Cloudy
1:55 AM 32.4 °F - 23.2 °F 69% 29.91 in 10.0 mi Calm Calm - N/A   Scattered Clouds
2:15 AM 32.2 °F 27.7 °F 23.7 °F 71% 29.91 in 10.0 mi WSW 4.6 mph - N/A   Scattered Clouds
2:35 AM 32.7 °F - 23.2 °F 68% 29.91 in 10.0 mi Calm Calm - N/A   Mostly Cloudy
2:55 AM 31.6 °F 26.0 °F 23.2 °F 71% 29.91 in 10.0 mi WSW 5.8 mph - N/A   Scattered Clouds
3:15 AM 32.5 °F 29.3 °F 22.1 °F 65% 29.92 in 10.0 mi SSE 3.5 mph - N/A   Scattered Clouds
3:35 AM 32.5 °F - 21.7 °F 64% 29.92 in 10.0 mi Calm Calm - N/A   Scattered Clouds
3:55 AM 32.2 °F 28.9 °F 21.4 °F 64% 29.91 in 10.0 mi WNW 3.5 mph - N/A   Scattered Clouds
4:15 AM 30.4 °F 26.9 °F 22.5 °F 72% 29.91 in 10.0 mi WSW 3.5 mph - N/A   Scattered Clouds
4:35 AM 29.8 °F - 22.3 °F 73% 29.92 in 10.0 mi Calm Calm - N/A   Scattered Clouds
4:55 AM 31.8 °F 28.5 °F 22.3 °F 68% 29.91 in 10.0 mi West 3.5 mph - N/A   Mostly Cloudy
5:15 AM 31.8 °F 27.3 °F 21.7 °F 66% 29.92 in 10.0 mi WSW 4.6 mph - N/A   Scattered Clouds
5:35 AM 34.0 °F 26.6 °F 20.7 °F 58% 29.92 in 10.0 mi WNW 9.2 mph 18.4 mph N/A   Clear
5:55 AM 33.8 °F 26.4 °F 20.7 °F 59% 29.92 in 10.0 mi WNW 9.2 mph - N/A   Clear
6:15 AM 34.2 °F 26.2 °F 20.8 °F 58% 29.92 in 10.0 mi WNW 10.4 mph 17.3 mph N/A   Clear
6:35 AM 34.3 °F 25.9 °F 20.7 °F 57% 29.93 in 10.0 mi WNW 11.5 mph 16.1 mph N/A   Clear
6:55 AM 34.7 °F 25.5 °F 20.5 °F 56% 29.93 in 10.0 mi NW 13.8 mph 17.3 mph N/A   Clear
7:15 AM 34.7 °F 26.4 °F 21.0 °F 57% 29.94 in 10.0 mi WNW 11.5 mph - N/A   Scattered Clouds
7:35 AM 34.9 °F 29.9 °F 21.2 °F 57% 29.94 in 10.0 mi West 5.8 mph 16.1 mph N/A   Mostly Cloudy
7:55 AM 34.7 °F 29.6 °F 21.4 °F 58% 29.95 in 10.0 mi West 5.8 mph - N/A   Scattered Clouds
8:15 AM 35.6 °F 29.9 °F 21.6 °F 57% 29.96 in 10.0 mi West 6.9 mph - N/A   Clear
8:35 AM 36.5 °F 29.2 °F 21.2 °F 54% 29.96 in 10.0 mi West 10.4 mph - N/A   Clear
8:55 AM 37.4 °F 30.3 °F 21.4 °F 52% 29.97 in 10.0 mi WNW 10.4 mph - N/A   Clear
9:15 AM 38.3 °F 32.5 °F 21.6 °F 51% 29.98 in 10.0 mi West 8.1 mph - N/A   Clear
9:35 AM 39.4 °F 32.3 °F 21.0 °F 48% 29.99 in 10.0 mi WNW 11.5 mph 18.4 mph N/A   Clear
9:55 AM 39.4 °F 31.4 °F 21.0 °F 48% 30.00 in - WNW 13.8 mph - N/A   Unknown
10:15 AM 39.4 °F 32.7 °F 21.4 °F 49% 30.00 in 10.0 mi WNW 10.4 mph 19.6 mph N/A   Unknown
10:35 AM 40.3 °F 33.4 °F 21.9 °F 48% 30.01 in 10.0 mi West 11.5 mph - N/A   Scattered Clouds
10:55 AM 41.2 °F 35.0 °F 21.4 °F 45% 30.02 in 10.0 mi West 10.4 mph 18.4 mph N/A   Mostly Cloudy
11:15 AM 41.2 °F 34.1 °F 21.2 °F 45% 30.02 in 10.0 mi West 12.7 mph 21.9 mph N/A   Overcast
11:35 AM 41.2 °F 34.5 °F 21.2 °F 45% 30.03 in 10.0 mi WNW 11.5 mph 20.7 mph N/A   Overcast
11:55 AM 41.9 °F 34.6 °F 21.4 °F 44% 30.04 in 10.0 mi WNW 13.8 mph 20.7 mph N/A   Overcast
12:15 PM 41.9 °F 35.4 °F 21.6 °F 44% 30.04 in 10.0 mi NW 11.5 mph 24.2 mph N/A   Overcast
12:35 PM 41.0 °F 34.7 °F 21.9 °F 47% 30.05 in 10.0 mi West 10.4 mph 17.3 mph N/A   Overcast
12:55 PM 41.2 °F 35.5 °F 21.9 °F 46% 30.05 in 10.0 mi WNW 9.2 mph - N/A   Overcast
1:15 PM 41.4 °F 35.2 °F 22.5 °F 47% 30.05 in 10.0 mi WNW 10.4 mph 16.1 mph N/A   Overcast
1:35 PM 41.4 °F 34.7 °F 22.5 °F 47% 30.05 in 10.0 mi WNW 11.5 mph - N/A   Overcast
1:55 PM 43.0 °F 37.2 °F 23.0 °F 45% 30.05 in 10.0 mi WNW 10.4 mph 21.9 mph N/A   Overcast
2:15 PM 44.1 °F 38.6 °F 22.8 °F 43% 30.05 in 10.0 mi NW 10.4 mph 19.6 mph N/A   Overcast
2:35 PM 43.5 °F 38.3 °F 22.8 °F 44% 30.05 in 10.0 mi NW 9.2 mph 16.1 mph N/A   Overcast
2:55 PM 43.5 °F 38.3 °F 22.3 °F 43% 30.05 in 10.0 mi NNW 9.2 mph - N/A   Overcast
3:15 PM 43.7 °F 36.9 °F 21.2 °F 41% 30.05 in 10.0 mi NW 13.8 mph 20.7 mph N/A   Overcast
3:35 PM 43.9 °F 36.8 °F 22.5 °F 43% 30.06 in 10.0 mi WNW 15.0 mph 19.6 mph N/A   Overcast
3:55 PM 43.3 °F 35.8 °F 21.6 °F 42% 30.06 in 10.0 mi NW 16.1 mph 24.2 mph N/A   Overcast
4:15 PM 43.9 °F 38.8 °F 22.3 °F 42% 30.06 in 10.0 mi NNW 9.2 mph - N/A   Overcast
4:35 PM 43.2 °F 37.4 °F 22.5 °F 44% 30.07 in 10.0 mi WNW 10.4 mph - N/A   Overcast
4:55 PM 43.3 °F 36.1 °F 22.6 °F 44% 30.07 in 10.0 mi NW 15.0 mph 23.0 mph N/A   Overcast
5:15 PM 42.3 °F 35.9 °F 23.2 °F 47% 30.08 in 10.0 mi WNW 11.5 mph 18.4 mph N/A   Overcast
5:35 PM 41.9 °F 35.9 °F 23.7 °F 49% 30.09 in 10.0 mi NW 10.4 mph - N/A   Overcast
5:55 PM 41.5 °F 35.9 °F 23.9 °F 50% 30.10 in 10.0 mi NW 9.2 mph 17.3 mph N/A   Overcast
6:15 PM 41.5 °F 34.2 °F 23.5 °F 49% 30.10 in 10.0 mi NW 13.8 mph 20.7 mph N/A   Overcast
6:35 PM 41.2 °F 36.6 °F 23.0 °F 48% 30.11 in 10.0 mi NW 6.9 mph 17.3 mph N/A   Overcast
6:55 PM 40.8 °F 35.6 °F 24.4 °F 52% 30.12 in 10.0 mi West 8.1 mph - N/A   Overcast
7:15 PM 39.7 °F 35.6 °F 25.5 °F 57% 30.14 in 10.0 mi WNW 5.8 mph - N/A   Overcast
7:35 PM 39.6 °F 32.5 °F 22.8 °F 51% 30.14 in 10.0 mi WNW 11.5 mph 16.1 mph N/A   Mostly Cloudy
7:55 PM 39.2 °F 32.5 °F 21.2 °F 49% 30.15 in 10.0 mi NW 10.4 mph 25.3 mph N/A   Overcast
8:15 PM 38.8 °F 31.6 °F 20.5 °F 48% 30.16 in 10.0 mi NW 11.5 mph 20.7 mph N/A   Scattered Clouds
8:35 PM 38.3 °F 32.5 °F 21.0 °F 50% 30.16 in 10.0 mi NW 8.1 mph - N/A   Scattered Clouds
8:55 PM 38.3 °F 32.5 °F 20.3 °F 48% 30.17 in 10.0 mi WNW 8.1 mph - N/A   Clear
9:15 PM 37.4 °F 32.8 °F 20.8 °F 51% 30.18 in 10.0 mi WNW 5.8 mph - N/A   Clear
9:35 PM 36.9 °F 32.2 °F 20.7 °F 52% 30.18 in 10.0 mi NW 5.8 mph - N/A   Scattered Clouds
9:55 PM 36.5 °F 33.9 °F 20.7 °F 53% 30.19 in 10.0 mi WNW 3.5 mph - N/A   Scattered Clouds
10:15 PM 35.6 °F 29.9 °F 20.7 °F 55% 30.20 in 10.0 mi WNW 6.9 mph - N/A   Scattered Clouds
10:35 PM 36.5 °F 31.8 °F 20.3 °F 52% 30.20 in 10.0 mi WNW 5.8 mph - N/A   Clear
10:55 PM 36.1 °F 30.6 °F 20.3 °F 53% 30.20 in 10.0 mi WNW 6.9 mph - N/A   Clear
11:15 PM 36.1 °F 30.6 °F 20.7 °F 53% 30.20 in 10.0 mi West 6.9 mph - N/A   Clear
11:35 PM 35.6 °F - 21.2 °F 56% 30.20 in 10.0 mi Calm Calm - N/A   Clear
11:55 PM 35.6 °F 32.8 °F 21.4 °F 56% 30.21 in 10.0 mi West 3.5 mph - N/A   Clear